Regional Weather Roundup
Issued by NWS Albany, NY

Home | Current Version | Previous Version | Text Only | Print | Product List | Glossary On
Versions: 1 2 3 4 5 6 7 8 9 10 11 12 13 14 15 16 17 18 19 20 21 22 23 24 25 26 27 28 29 30 31 32 33 34 35 36 37 38 39 40 41 42 43 44 45 46 47 48 49 50
658
ASUS41 KALY 290810
RWRALY

NEW YORK STATE HOURLY WEATHER ROUNDUP
NATIONAL WEATHER SERVICE ALBANY NY
400 AM EDT FRI JUL 29 2016

NOTE: "FAIR" INDICATES FEW OR NO CLOUDS BELOW 12,000 FEET WITH NO
SIGNIFICANT WEATHER AND/OR NO OBSTRUCTIONS TO VISIBILITY.

NYZ032-033-038>043-046>054-057>066-NYZ062>081-082-084-290900-
EAST


CITY           SKY/WX    TMP DP  RH WIND       PRES   REMARKS
ALBANY         LGT RAIN  69  67  93 SE3       29.87F FOG
GLENS FALLS    CLOUDY    67  64  90 CALM      29.89S
POUGHKEEPSIE   LGT RAIN  74  71  91 CALM      29.85F FOG
NEWBURGH       LGT RAIN  72  72 100 VRB5      29.88F FOG
MONTGOMERY     LGT RAIN  72  70  93 CALM      29.86F FOG
WHITE PLAINS   LGT RAIN  72  70  93 N7        29.85F FOG
ISLIP          CLOUDY    75  72  90 N5        29.83F
NEW YORK CITY  RAIN      75  71  87 N9        29.83S FOG
CENTRAL PARK   CLOUDY    73  71  93 CALM      29.86F FOG
$$

NYZ005>009-017-018-044>046-055-056-290900-
CENTRAL


CITY           SKY/WX    TMP DP  RH WIND       PRES   REMARKS
FULTON         CLOUDY    69  65  86 CALM      29.89S FOG
SYRACUSE       CLOUDY    67  65  93 CALM      29.88R
ROME           CLOUDY    66  65  96 CALM      29.89F
ELMIRA         CLOUDY    67  60  78 CALM      29.89F
BINGHAMTON     CLOUDY    69  65  86 NE3       29.91F
MONTICELLO     CLOUDY    66  64  94 CALM      29.91F
$$

NYZ026>034-041>043-087-290900-
NORTH


CITY           SKY/WX    TMP DP  RH WIND       PRES   REMARKS
WATERTOWN      MOCLDY    66  64  93 E3        29.91R
FORT DRUM      NOT AVBL
MASSENA        PTCLDY    62  58  86 N7        29.93R
SARANAC LAKE   CLOUDY    61  59  93 CALM      29.94F
PLATTSBURGH    CLOUDY    66  65  96 CALM      29.89F
$$

NYZ001>004-010>016-019>021-085-290900-
WEST


CITY           SKY/WX    TMP DP  RH WIND       PRES   REMARKS
NIAGARA FALLS  CLOUDY    73  64  73 N6        29.91R
BUFFALO        PTCLDY    69  63  81 N3        29.91S
DUNKIRK        PTCLDY    66  64  93 SE5       29.91S
JAMESTOWN      MOCLDY    66  63  88 CALM      29.95S
WELLSVILLE     FOG       66  64  93 CALM      29.97F VSB 1/4
ROCHESTER      CLOUDY    67  63  87 CALM      29.91S
PENN YAN       PTCLDY    66  62  87 CALM      29.92S
$$

             KEY
       WCI = WIND CHILL INDEX
       VSB = VISIBILITY
       HX  = HEAT INDEX
$$




USA.gov is the U.S. government's official web portal to all federal, state and local government web resources and services.